KM4RT-13 Weather Reports


Display with metric or nautical units.
time (UTC)temp
F
wind
direction
speed
MPH
gust
MPH
rain 1hr
in
rain 24hr
in
rain mn
in
humidity
%
barometer
mb
20260505090841 64 185 6.0 7.0 0.00 0.00 0.00 71 1005.8
20260505090339 64 213 7.0 8.0 0.00 0.00 0.00 71 1005.4
20260505085836 64 195 9.0 11.0 0.00 0.00 0.00 71 1005.5
20260505085334 64 205 9.0 10.0 0.00 0.00 0.00 71 1005.4
20260505084831 64 226 6.0 7.0 0.00 0.00 0.00 71 1005.7
20260505084330 64 224 8.0 9.0 0.00 0.00 0.00 70 1005.5
20260505083826 64 220 8.0 9.0 0.00 0.00 0.00 71 1005.6
20260505083324 64 190 5.0 6.0 0.00 0.00 0.00 71 1005.7
20260505082820 64 232 5.0 6.0 0.00 0.00 0.00 71 1005.6
20260505082317 64 218 5.0 6.0 0.00 0.00 0.00 71 1005.6
20260505081813 64 202 11.0 15.0 0.00 0.00 0.00 70 1005.7
20260505081310 64 195 8.0 10.0 0.00 0.00 0.00 70 1005.9
20260505080807 64 201 9.0 9.0 0.00 0.00 0.00 69 1005.9
20260505080303 64 198 7.0 9.0 0.00 0.00 0.00 69 1005.9
20260505075758 64 239 5.0 6.0 0.00 0.00 0.00 69 1006.0
20260505075255 64 226 6.0 7.0 0.00 0.00 0.00 69 1006.0
20260505074753 64 193 6.0 7.0 0.00 0.00 0.00 69 1006.0
20260505074250 64 189 4.0 4.0 0.00 0.00 0.00 69 1005.9
20260505073748 64 207 4.0 4.0 0.00 0.00 0.00 69 1006.0
20260505073245 64 192 5.0 7.0 0.00 0.00 0.00 69 1006.1
20260505072742 64 207 2.0 2.0 0.00 0.00 0.00 69 1006.1
20260505072238 64 222 4.0 4.0 0.00 0.00 0.00 69 1006.5
20260505071734 65 186 3.0 4.0 0.00 0.00 0.00 68 1006.8
20260505071230 65 206 4.0 4.0 0.00 0.00 0.00 68 1007.0
20260505070728 65 207 6.0 8.0 0.00 0.00 0.00 67 1006.9
20260505070224 65 210 3.0 3.0 0.00 0.00 0.00 68 1006.9
20260505065720 65 207 4.0 6.0 0.00 0.00 0.00 68 1007.1
20260505065217 65 170 1.0 2.0 0.00 0.00 0.00 68 1007.3
20260505064714 65 204 2.0 3.0 0.00 0.00 0.00 67 1007.5
20260505064212 65 227 1.0 1.0 0.00 0.00 0.00 67 1007.1
20260505063709 65 207 3.0 4.0 0.00 0.00 0.00 67 1007.1
20260505063205 65 195 4.0 4.0 0.00 0.00 0.00 66 1007.4
20260505062701 66 200 5.0 6.0 0.00 0.00 0.00 66 1007.5
20260505062159 66 209 6.0 7.0 0.00 0.00 0.00 65 1007.5
20260505061656 66 229 4.0 4.0 0.00 0.00 0.00 65 1007.6
20260505061154 66 212 6.0 7.0 0.00 0.00 0.00 65 1007.5
20260505060651 66 216 6.0 8.0 0.00 0.00 0.00 64 1007.5
20260505060148 66 216 7.0 8.0 0.00 0.00 0.00 64 1007.5
20260505055643 66 217 8.0 9.0 0.00 0.00 0.00 64 1007.5
20260505055140 66 231 6.0 7.0 0.00 0.00 0.00 64 1007.4
20260505054638 66 207 7.0 8.0 0.00 0.00 0.00 64 1007.3
20260505054135 66 209 5.0 6.0 0.00 0.00 0.00 64 1007.7
20260505053633 67 221 6.0 8.0 0.00 0.00 0.00 64 1007.3
20260505053129 67 215 4.0 6.0 0.00 0.00 0.00 64 1007.6
20260505052626 67 219 2.0 3.0 0.00 0.00 0.00 64 1007.6
20260505052124 66 204 5.0 7.0 0.00 0.00 0.00 64 1007.5
20260505051621 67 214 4.0 6.0 0.00 0.00 0.00 64 1007.6
20260505051119 67 232 4.0 4.0 0.00 0.00 0.00 64 1007.6
20260505050616 67 215 6.0 9.0 0.00 0.00 0.00 63 1007.7
20260505050114 67 225 7.0 8.0 0.00 0.00 0.00 63 1007.9
20260505041544 68 204 7.0 8.0 0.00 0.00 0.00 60 1007.9
20260505041041 68 204 6.0 7.0 0.00 0.00 0.00 61 1007.8
20260505040538 68 223 8.0 9.0 0.00 0.00 0.00 60 1007.7
20260505040036 68 216 6.0 8.0 0.00 0.00 0.00 60 1007.8
20260505035531 68 203 8.0 9.0 0.00 0.00 0.00 60 1007.7
20260505035028 68 236 4.0 6.0 0.00 0.00 0.00 60 1007.6
20260505034525 68 244 4.0 4.0 0.00 0.00 0.00 60 1007.6
20260505034022 68 204 4.0 6.0 0.00 0.00 0.00 59 1007.6
20260505033519 69 205 4.0 4.0 0.00 0.00 0.00 59 1007.7
20260505033017 69 201 7.0 9.0 0.00 0.00 0.00 58 1007.9
20260505032514 69 222 6.0 7.0 0.00 0.00 0.00 58 1007.6
20260505032010 69 202 6.0 8.0 0.00 0.00 0.00 58 1007.7
20260505031508 69 210 4.0 4.0 0.00 0.00 0.00 58 1007.6
20260505031004 69 202 4.0 4.0 0.00 0.00 0.00 58 1007.5
20260505030501 69 213 8.0 10.0 0.00 0.00 0.00 57 1007.4
20260505025956 69 218 7.0 8.0 0.00 0.00 0.00 57 1007.5
20260505025453 69 198 7.0 9.0 0.00 0.00 0.00 57 1007.4
20260505024952 69 193 6.0 7.0 0.00 0.00 0.00 57 1007.3
20260505024449 69 219 4.0 4.0 0.00 0.00 0.00 58 1007.6
20260505023946 69 215 3.0 3.0 0.00 0.00 0.00 57 1007.3
20260505023443 69 213 1.0 2.0 0.00 0.00 0.00 57 1007.5
20260505022940 70 163 4.0 4.0 0.00 0.00 0.00 56 1007.2
20260505022438 70 221 3.0 4.0 0.00 0.00 0.00 56 1007.3
20260505021935 70 200 6.0 7.0 0.00 0.00 0.00 55 1007.4
20260505021431 70 226 2.0 2.0 0.00 0.00 0.00 56 1007.2
20260505020927 70 226 4.0 4.0 0.00 0.00 0.00 55 1007.2
20260505020422 71 211 3.0 4.0 0.00 0.00 0.00 54 1006.9
20260505015919 71 203 4.0 4.0 0.00 0.00 0.00 54 1007.1
20260505015417 71 184 5.0 6.0 0.00 0.00 0.00 53 1007.2
20260505014914 71 203 4.0 4.0 0.00 0.00 0.00 54 1006.9
20260505014411 71 207 2.0 3.0 0.00 0.00 0.00 54 1006.8
20260505013908 72 174 3.0 3.0 0.00 0.00 0.00 53 1006.9
20260505013404 72 215 5.0 6.0 0.00 0.00 0.00 52 1006.9
20260505012903 73 224 6.0 9.0 0.00 0.00 0.00 52 1006.9
20260505012400 73 222 6.0 7.0 0.00 0.00 0.00 51 1006.9
20260505011856 73 196 11.0 14.0 0.00 0.00 0.00 51 1007.0
20260505011353 73 201 11.0 11.0 0.00 0.00 0.00 50 1006.9
20260505010849 73 207 10.0 11.0 0.00 0.00 0.00 50 1006.8
20260505010345 73 198 6.0 7.0 0.00 0.00 0.00 50 1007.1
20260505005842 73 208 7.0 8.0 0.00 0.00 0.00 50 1006.8
20260505005338 74 216 8.0 11.0 0.00 0.00 0.00 49 1007.0
20260505004836 74 225 8.0 9.0 0.00 0.00 0.00 49 1006.7
20260505004332 74 181 7.0 11.0 0.00 0.00 0.00 49 1006.6
20260505003830 75 229 8.0 10.0 0.00 0.00 0.00 48 1006.7
20260505003327 75 218 7.0 8.0 0.00 0.00 0.00 48 1006.8
20260505002823 75 236 4.0 6.0 0.00 0.00 0.00 47 1006.8
20260505002320 75 231 6.0 8.0 0.00 0.00 0.00 46 1006.9
20260505001818 76 186 4.0 6.0 0.00 0.00 0.00 45 1007.0
20260505001314 76 231 4.0 6.0 0.00 0.00 0.00 46 1006.9
20260505000812 76 213 5.0 6.0 0.00 0.00 0.00 44 1006.7
20260505000310 77 205 7.0 8.0 0.00 0.00 0.00 44 1006.9
20260504235806 77 234 8.0 11.0 0.00 0.00 0.00 43 1006.9
20260504235304 77 240 9.0 10.0 0.00 0.00 0.00 43 1006.9
20260504234800 77 234 12.0 18.0 0.00 0.00 0.00 42 1007.0
20260504234258 77 275 7.0 9.0 0.00 0.00 0.00 42 1007.0
20260504233753 77 230 6.0 7.0 0.00 0.00 0.00 41 1007.0
20260504233249 77 218 5.0 8.0 0.00 0.00 0.00 41 1007.1
20260504232746 78 199 9.0 13.0 0.00 0.00 0.00 40 1007.0
20260504232243 78 216 12.0 15.0 0.00 0.00 0.00 40 1007.1
20260504231740 78 234 14.0 17.0 0.00 0.00 0.00 40 1007.0
20260504231237 78 232 7.0 9.0 0.00 0.00 0.00 42 1007.4
20260504230732 78 215 8.0 10.0 0.00 0.00 0.00 42 1007.0
20260504230231 78 232 11.0 11.0 0.00 0.00 0.00 41 1006.9
20260504225730 78 210 7.0 9.0 0.00 0.00 0.00 41 1007.1
20260504225226 78 270 13.0 16.0 0.00 0.00 0.00 41 1007.1
20260504224723 78 252 17.0 23.0 0.00 0.00 0.00 41 1007.0
20260504224220 79 237 8.0 9.0 0.00 0.00 0.00 41 1007.0
20260504223716 78 226 5.0 8.0 0.00 0.00 0.00 41 1007.0
20260504223212 79 215 10.0 14.0 0.00 0.00 0.00 40 1007.1
20260504222709 79 238 9.0 11.0 0.00 0.00 0.00 40 1007.0
20260504222206 79 235 8.0 9.0 0.00 0.00 0.00 41 1007.1
20260504221703 79 215 11.0 11.0 0.00 0.00 0.00 41 1007.0
20260504221201 79 188 11.0 14.0 0.00 0.00 0.00 41 1006.9
20260504220656 79 233 5.0 6.0 0.00 0.00 0.00 41 1007.1
20260504220155 79 223 12.0 14.0 0.00 0.00 0.00 40 1007.1
20260504215651 79 206 11.0 13.0 0.00 0.00 0.00 42 1006.9
20260504215148 79 200 7.0 9.0 0.00 0.00 0.00 41 1006.9
20260504214644 80 215 17.0 23.0 0.00 0.00 0.00 40 1007.0
20260504214140 79 200 8.0 9.0 0.00 0.00 0.00 42 1007.0
20260504213637 79 200 15.0 18.0 0.00 0.00 0.00 41 1006.9
20260504213134 79 234 11.0 14.0 0.00 0.00 0.00 42 1006.8
20260504212630 79 200 17.0 19.0 0.00 0.00 0.00 41 1007.2
20260504212127 79 194 11.0 13.0 0.00 0.00 0.00 40 1007.1
20260504211625 79 192 19.0 22.0 0.00 0.00 0.00 40 1007.0
20260504211121 79 218 14.0 16.0 0.00 0.00 0.00 42 1007.4
20260504210619 79 222 13.0 15.0 0.00 0.00 0.00 41 1007.1
20260504210115 79 218 17.0 19.0 0.00 0.00 0.00 41 1007.2
20260504205613 79 221 13.0 16.0 0.00 0.00 0.00 42 1007.3
20260504205110 79 248 15.0 18.0 0.00 0.00 0.00 42 1007.3
20260504204609 79 225 15.0 17.0 0.00 0.00 0.00 42 1007.1
20260504204107 79 237 13.0 16.0 0.00 0.00 0.00 42 1007.4
20260504203605 78 230 10.0 15.0 0.00 0.00 0.00 43 1007.7
20260504203102 79 239 10.0 13.0 0.00 0.00 0.00 44 1007.6
20260504202557 79 244 16.0 19.0 0.00 0.00 0.00 41 1007.7
20260504202054 79 249 9.0 13.0 0.00 0.00 0.00 41 1007.9
20260504201551 79 221 6.0 8.0 0.00 0.00 0.00 41 1007.7
20260504201049 79 216 11.0 14.0 0.00 0.00 0.00 41 1008.2
20260504200545 79 203 10.0 13.0 0.00 0.00 0.00 42 1008.0
20260504200042 79 225 18.0 21.0 0.00 0.00 0.00 41 1007.9
20260504195538 79 202 11.0 13.0 0.00 0.00 0.00 42 1008.3
20260504195035 78 213 15.0 19.0 0.00 0.00 0.00 41 1008.4
20260504194531 78 226 23.0 29.0 0.00 0.00 0.00 41 1008.4
20260504194027 79 215 12.0 15.0 0.00 0.00 0.00 41 1008.4
20260504193524 79 218 12.0 14.0 0.00 0.00 0.00 43 1008.6
20260504193023 80 203 13.0 14.0 0.00 0.00 0.00 42 1008.5
20260504192520 79 212 8.0 11.0 0.00 0.00 0.00 41 1008.7
20260504192018 79 255 8.0 9.0 0.00 0.00 0.00 43 1008.7
20260504191516 78 233 14.0 16.0 0.00 0.00 0.00 44 1008.6
20260504191012 78 214 13.0 15.0 0.00 0.00 0.00 43 1008.6
20260504190508 78 173 14.0 19.0 0.00 0.00 0.00 43 1008.8
20260504190004 78 239 15.0 19.0 0.00 0.00 0.00 43 1008.8
20260504185501 78 184 11.0 13.0 0.00 0.00 0.00 44 1009.0
20260504184958 79 196 15.0 19.0 0.00 0.00 0.00 42 1008.9
20260504184453 78 241 7.0 11.0 0.00 0.00 0.00 45 1009.2
20260504183949 78 210 17.0 18.0 0.00 0.00 0.00 43 1009.0
20260504183446 78 204 13.0 16.0 0.00 0.00 0.00 43 1009.2
20260504182944 78 247 16.0 19.0 0.00 0.00 0.00 43 1009.2
20260504182441 77 206 15.0 18.0 0.00 0.00 0.00 45 1009.5
20260504181938 77 224 14.0 19.0 0.00 0.00 0.00 46 1009.4
20260504181435 77 220 7.0 10.0 0.00 0.00 0.00 47 1009.4
20260504180934 77 196 11.0 13.0 0.00 0.00 0.00 46 1009.4
20260504180432 77 228 9.0 10.0 0.00 0.00 0.00 47 1009.5
20260504175930 77 208 17.0 19.0 0.00 0.00 0.00 46 1009.8
20260504175427 77 187 9.0 10.0 0.00 0.00 0.00 46 1009.7
20260504174925 77 224 13.0 16.0 0.00 0.00 0.00 45 1009.9
20260504174422 77 199 12.0 14.0 0.00 0.00 0.00 47 1009.9
20260504173919 77 262 4.0 7.0 0.00 0.00 0.00 49 1009.8
20260504173416 76 279 6.0 9.0 0.00 0.00 0.00 47 1009.8
20260504172913 76 277 13.0 17.0 0.00 0.00 0.00 48 1010.0
20260504172409 76 209 9.0 13.0 0.00 0.00 0.00 48 1010.1
20260504171905 76 241 6.0 9.0 0.00 0.00 0.00 52 1010.1
20260504171403 77 320 9.0 14.0 0.00 0.00 0.00 48 1010.3
20260504170900 75 277 9.0 10.0 0.00 0.00 0.00 51 1010.5
20260504170356 75 230 12.0 17.0 0.00 0.00 0.00 51 1010.4
20260504160315 74 237 6.0 7.0 0.00 0.00 0.00 54 1011.0
20260504150739 72 202 5.0 6.0 0.00 0.00 0.00 61 1011.4
20260504150236 72 175 7.0 10.0 0.00 0.00 0.00 61 1011.3
20260504141206 68 204 7.0 9.0 0.00 0.00 0.00 68 1011.5
20260504140703 68 225 8.0 9.0 0.00 0.00 0.00 68 1011.7
20260504140158 68 253 7.0 9.0 0.00 0.00 0.00 69 1011.6
20260504130626 63 197 2.0 3.0 0.00 0.00 0.00 77 1011.5
20260504130123 62 200 3.0 3.0 0.00 0.00 0.00 77 1011.2
20260504110514 59 202 3.0 3.0 0.00 0.00 0.00 78 1010.6
20260504100431 59 217 4.0 6.0 0.00 0.00 0.00 76 1010.7